Torna al catalogo

STARLINK-33942

AttivoComunicazioniVLEO
NORAD 63974·PAYLOAD·🇺🇸 United States

Lanciato May 13, 2025 da Cape Canaveral Space Force Station

Loading…

Prossimi Passaggi (prossime 24 ore)

TLE

AggiornatoSource: CelesTrak SupGP

Epoca: Sep 14, 2026, 21:18 UTC

1 63974C 25099Y   26257.88798611 -.00004202  00000+0 -15220-3 0  2573
2 63974  43.0023 184.4379 0001254 263.6034 313.4823 15.27584039    14

Traccia STARLINK-33942 in tempo reale con AllMySat

Download on the App Store